Tracking 22836 objects as of 16-Apr-2021
HD Live streaming from Space Station
objects crossing your sky now

STARLINK-1379

Track STARLINK-1379 now!
10-day predictions
STARLINK-1379 is classified as:


NORAD ID: 45549
Int'l Code: 2020-025U
Perigee: 553.4 km
Apogee: 555.3 km
Inclination: 53.1 °
Period: 95.6 minutes
Semi major axis: 6925 km
RCS: Unknown
Launch date: April 22, 2020
Source: United States (US)
Launch site: AIR FORCE EASTERN TEST RANGE (AFETR)
aabbcc
Your satellite tracking list
Your tracking list is empty




NASA's NSSDC Master Catalog

Two Line Element Set (TLE):
1 45549U 20025U   21105.77485415  .00000799  00000-0  72557-4 0  9991
2 45549  53.0574 217.3638 0001346 123.2404 236.8714 15.06396798 54872
Source of the keplerian elements: AFSPC